Terminal Aerodrome Forecast
Issued by NWS Charleston, WV

Current Version | Previous Version | Text Only | Print | Product List | Glossary Off
Versions: 1 2 3 4 5 6 7 8 9 10 11 12 13 14 15 16 17 18 19 20 21 22 23 24 25 26 27 28 29

000
FTUS41 KRLX 200500
TAFBKW
TAF
KBKW 200536Z 2006/2106 VRB03KT P6SM BKN008
     FM200800 00000KT P6SM BKN200
     FM201400 00000KT P6SM OVC025
     FM201600 VRB03KT P6SM OVC060
     FM202000 12004KT P6SM OVC025
     FM210200 00000KT P6SM BKN018
     FM210500 00000KT P6SM BKN024=

USA.gov is the U.S. government's official web portal to all federal, state and local government web resources and services.